TRA1A EHRD-LOWW

Flight info

Callsign TRA1A
Flight time 1h 31m
Altitude 37000
Route LUNIX Z739 MISGO DCT GMH DCT BADGO DCT SWALM DCT GASKA DCT ENITA DCT ETVIS DCT BUDWA DCT BUDEX BUDEX2W
Aircraft A321/M-SDE3FGHIRWY/LB1

Departure

Time 2026-04-22 18:12
Airport Rotterdam The Hague Airport (EHRD)

Arrival

Time 2026-04-22 19:43
Airport Vienna International Airport (LOWW)
Time Latitude Longitude Altitude Speed Heading
2026-04-22 17:48 51.95065 4.43374 1 ft 0 kts 327°
2026-04-22 18:08 51.95079 4.43360 1 ft 5 kts 327°
2026-04-22 18:08 51.95115 4.43371 1 ft 6 kts 49°
2026-04-22 18:08 51.95144 4.43437 1 ft 8 kts 56°
2026-04-22 18:08 51.95187 4.43489 1 ft 7 kts 346°
2026-04-22 18:09 51.95240 4.43437 1 ft 9 kts 316°
2026-04-22 18:09 51.95222 4.43349 1 ft 9 kts 240°
2026-04-22 18:09 51.95184 4.43250 1 ft 11 kts 238°
2026-04-22 18:09 51.95141 4.43130 1 ft 13 kts 244°
2026-04-22 18:10 51.95114 4.43037 1 ft 1 kts 245°
2026-04-22 18:10 51.95110 4.43023 1 ft 0 kts 251°
2026-04-22 18:10 51.95110 4.43020 1 ft 1 kts 252°
2026-04-22 18:10 51.95121 4.42948 1 ft 14 kts 305°
2026-04-22 18:11 51.95207 4.42855 2 ft 12 kts 342°
2026-04-22 18:11 51.95247 4.42914 2 ft 15 kts 56°
2026-04-22 18:11 51.95334 4.43128 2 ft 55 kts 57°
2026-04-22 18:11 51.95678 4.43986 1 ft 123 kts 57°
2026-04-22 18:12 51.96141 4.45252 587 ft 126 kts 60°
2026-04-22 18:12 51.96581 4.46499 1234 ft 129 kts 60°
2026-04-22 18:12 51.97071 4.47780 1713 ft 141 kts 58°
2026-04-22 18:12 51.97644 4.49227 2006 ft 164 kts 59°
2026-04-22 18:13 51.98289 4.50893 2304 ft 185 kts 63°
2026-04-22 18:13 51.98894 4.52870 2533 ft 208 kts 64°
2026-04-22 18:13 51.99613 4.55027 2919 ft 224 kts 62°
2026-04-22 18:13 52.00423 4.57327 3407 ft 241 kts 62°
2026-04-22 18:14 52.01281 4.59714 4120 ft 248 kts 62°
2026-04-22 18:14 52.02162 4.62157 4872 ft 254 kts 61°
2026-04-22 18:14 52.03055 4.64648 5624 ft 257 kts 61°
2026-04-22 18:14 52.03956 4.67171 6406 ft 260 kts 61°
2026-04-22 18:15 52.04867 4.69737 7115 ft 265 kts 62°
2026-04-22 18:15 52.05778 4.72311 7843 ft 267 kts 62°
2026-04-22 18:15 52.06705 4.74936 8597 ft 269 kts 61°
2026-04-22 18:15 52.07644 4.77593 9307 ft 274 kts 61°
2026-04-22 18:16 52.08596 4.80290 10048 ft 276 kts 62°
2026-04-22 18:16 52.09559 4.83026 10633 ft 285 kts 61°
2026-04-22 18:16 52.10581 4.85942 10776 ft 308 kts 61°
2026-04-22 18:16 52.11610 4.89131 10901 ft 328 kts 70°
2026-04-22 18:17 52.11995 4.92857 11155 ft 344 kts 91°
2026-04-22 18:17 52.11426 4.96667 11625 ft 353 kts 112°
2026-04-22 18:17 52.10362 5.00294 12216 ft 357 kts 114°
2026-04-22 18:17 52.09276 5.03886 12826 ft 360 kts 114°
2026-04-22 18:18 52.08156 5.07552 13443 ft 364 kts 114°
2026-04-22 18:18 52.07020 5.11253 14037 ft 367 kts 114°
2026-04-22 18:18 52.05877 5.14990 14582 ft 370 kts 114°
2026-04-22 18:18 52.04727 5.18750 15118 ft 373 kts 114°
2026-04-22 18:19 52.03566 5.22542 15660 ft 376 kts 114°
2026-04-22 18:19 52.02394 5.26363 16205 ft 379 kts 113°
2026-04-22 18:19 52.01218 5.30216 16744 ft 382 kts 113°
2026-04-22 18:19 52.00031 5.34104 17281 ft 385 kts 113°
2026-04-22 18:20 51.98835 5.38010 17804 ft 388 kts 113°
2026-04-22 18:20 51.97624 5.41954 18302 ft 392 kts 112°
2026-04-22 18:20 51.96403 5.45917 18772 ft 395 kts 112°
2026-04-22 18:20 51.95164 5.49918 19218 ft 398 kts 112°
2026-04-22 18:21 51.93917 5.53936 19669 ft 400 kts 112°
2026-04-22 18:21 51.92665 5.57978 20114 ft 402 kts 112°
2026-04-22 18:21 51.91408 5.62047 20563 ft 405 kts 112°
2026-04-22 18:21 51.90144 5.66135 21029 ft 407 kts 112°
2026-04-22 18:22 51.88887 5.70187 21478 ft 409 kts 112°
2026-04-22 18:22 51.87606 5.74307 21932 ft 411 kts 112°
2026-04-22 18:22 51.86315 5.78446 22382 ft 414 kts 112°
2026-04-22 18:22 51.85012 5.82611 22822 ft 416 kts 112°
2026-04-22 18:23 51.83698 5.86796 23257 ft 419 kts 112°
2026-04-22 18:23 51.82371 5.91015 23663 ft 422 kts 112°
2026-04-22 18:23 51.81034 5.95254 24051 ft 425 kts 112°
2026-04-22 18:24 51.78339 6.03804 24750 ft 430 kts 113°
2026-04-22 18:24 51.76977 6.08115 25082 ft 432 kts 113°
2026-04-22 18:24 51.74230 6.16806 25753 ft 437 kts 113°
2026-04-22 18:25 51.72843 6.21186 26093 ft 440 kts 113°
2026-04-22 18:25 51.71447 6.25582 26430 ft 442 kts 113°
2026-04-22 18:25 51.70040 6.30003 26761 ft 444 kts 113°
2026-04-22 18:26 51.67200 6.38894 27462 ft 448 kts 114°
2026-04-22 18:26 51.65767 6.43365 27777 ft 450 kts 114°
2026-04-22 18:26 51.64322 6.47855 28081 ft 453 kts 114°
2026-04-22 18:26 51.62865 6.52369 28372 ft 455 kts 114°
2026-04-22 18:27 51.61402 6.56895 28650 ft 457 kts 114°
2026-04-22 18:27 51.59935 6.61437 28903 ft 459 kts 114°
2026-04-22 18:27 51.58462 6.66000 29150 ft 461 kts 114°
2026-04-22 18:27 51.56985 6.70568 29488 ft 460 kts 114°
2026-04-22 18:28 51.55507 6.75127 29850 ft 459 kts 114°
2026-04-22 18:28 51.54033 6.79669 30281 ft 457 kts 114°
2026-04-22 18:28 51.52582 6.84127 30627 ft 456 kts 114°
2026-04-22 18:28 51.51111 6.88635 30919 ft 456 kts 114°
2026-04-22 18:29 51.49659 6.93222 31207 ft 454 kts 113°
2026-04-22 18:29 51.48312 6.97746 31488 ft 454 kts 111°
2026-04-22 18:29 51.46999 7.02345 31772 ft 453 kts 111°
2026-04-22 18:29 51.45707 7.06945 32053 ft 453 kts 111°
2026-04-22 18:30 51.44832 7.10057 32243 ft 453 kts 111°
2026-04-22 18:30 51.41784 7.20704 32916 ft 452 kts 112°
2026-04-22 18:30 51.40452 7.25261 33242 ft 450 kts 112°
2026-04-22 18:31 51.39118 7.29792 33537 ft 450 kts 112°
2026-04-22 18:31 51.37783 7.34321 33815 ft 449 kts 112°
2026-04-22 18:31 51.36448 7.38842 34083 ft 449 kts 112°
2026-04-22 18:31 51.35115 7.43353 34344 ft 449 kts 112°
2026-04-22 18:32 51.33784 7.47860 34574 ft 448 kts 112°
2026-04-22 18:32 51.32451 7.52378 34781 ft 449 kts 112°
2026-04-22 18:32 51.31117 7.56887 34966 ft 449 kts 112°
2026-04-22 18:32 51.29778 7.61408 35161 ft 450 kts 112°
2026-04-22 18:33 51.28435 7.65927 35371 ft 450 kts 112°
2026-04-22 18:33 51.27092 7.70433 35592 ft 449 kts 112°
2026-04-22 18:33 51.25744 7.74943 35799 ft 449 kts 112°
2026-04-22 18:33 51.24400 7.79440 36012 ft 449 kts 112°
2026-04-22 18:34 51.23054 7.83934 36211 ft 449 kts 112°
2026-04-22 18:34 51.21699 7.88414 36415 ft 449 kts 112°
2026-04-22 18:34 51.20347 7.92896 36595 ft 449 kts 112°
2026-04-22 18:34 51.19000 7.97383 36781 ft 449 kts 112°
2026-04-22 18:35 51.17650 8.01874 36950 ft 449 kts 112°
2026-04-22 18:35 51.16301 8.06352 37122 ft 449 kts 112°
2026-04-22 18:35 51.14948 8.10830 37310 ft 449 kts 112°
2026-04-22 18:36 51.12228 8.19790 37360 ft 450 kts 112°
2026-04-22 18:36 51.09495 8.28739 37352 ft 450 kts 112°
2026-04-22 18:37 51.06754 8.37679 37352 ft 450 kts 113°
2026-04-22 18:37 51.04474 8.45098 37355 ft 450 kts 112°
2026-04-22 18:38 51.01261 8.55535 37365 ft 450 kts 113°
2026-04-22 18:38 50.98497 8.64471 37367 ft 451 kts 113°
2026-04-22 18:39 50.94356 8.77797 37367 ft 451 kts 113°
2026-04-22 18:39 50.91580 8.86717 37363 ft 451 kts 113°
2026-04-22 18:40 50.88796 8.95617 37364 ft 451 kts 113°
2026-04-22 18:40 50.85991 9.04495 37363 ft 451 kts 113°
2026-04-22 18:41 50.83184 9.13370 37360 ft 451 kts 113°
2026-04-22 18:41 50.80378 9.22243 37363 ft 451 kts 113°
2026-04-22 18:42 50.77566 9.31101 37359 ft 451 kts 113°
2026-04-22 18:42 50.74741 9.39958 37373 ft 451 kts 114°
2026-04-22 18:43 50.71908 9.48788 37374 ft 450 kts 114°
2026-04-22 18:43 50.69074 9.57600 37370 ft 450 kts 114°
2026-04-22 18:44 50.66245 9.66384 37368 ft 449 kts 114°
2026-04-22 18:44 50.63427 9.75105 37370 ft 449 kts 114°
2026-04-22 18:45 50.60584 9.83867 37388 ft 449 kts 114°
2026-04-22 18:45 50.57743 9.92601 37372 ft 448 kts 114°
2026-04-22 18:46 50.54885 10.01317 37365 ft 448 kts 114°
2026-04-22 18:46 50.52023 10.10021 37377 ft 448 kts 114°
2026-04-22 18:47 50.49164 10.18709 37380 ft 448 kts 114°
2026-04-22 18:47 50.46309 10.27343 37381 ft 448 kts 114°
2026-04-22 18:48 50.43429 10.36017 37377 ft 447 kts 114°
2026-04-22 18:48 50.40548 10.44667 37379 ft 447 kts 114°
2026-04-22 18:49 50.37677 10.53249 37375 ft 447 kts 114°
2026-04-22 18:49 50.34786 10.61893 37374 ft 448 kts 114°
2026-04-22 18:50 50.31882 10.70534 37387 ft 448 kts 114°
2026-04-22 18:50 50.28975 10.79158 37380 ft 448 kts 114°
2026-04-22 18:51 50.26061 10.87767 37373 ft 448 kts 114°
2026-04-22 18:51 50.23139 10.96371 37370 ft 448 kts 114°
2026-04-22 18:52 50.20213 11.04975 37369 ft 448 kts 114°
2026-04-22 18:52 50.17298 11.13501 37380 ft 448 kts 115°
2026-04-22 18:53 50.14353 11.22057 37372 ft 447 kts 115°
2026-04-22 18:53 50.11415 11.30600 37374 ft 447 kts 115°
2026-04-22 18:54 50.08478 11.39134 37377 ft 447 kts 115°
2026-04-22 18:54 50.05522 11.47652 37364 ft 448 kts 115°
2026-04-22 18:55 50.02553 11.56175 37371 ft 448 kts 115°
2026-04-22 18:55 49.99579 11.64690 37365 ft 448 kts 115°
2026-04-22 18:56 49.96603 11.73196 37363 ft 448 kts 115°
2026-04-22 18:56 49.93625 11.81690 37363 ft 448 kts 115°
2026-04-22 18:57 49.90635 11.90174 37339 ft 448 kts 115°
2026-04-22 18:57 49.87626 11.98655 37327 ft 448 kts 115°
2026-04-22 18:58 49.84633 12.07098 37323 ft 445 kts 115°
2026-04-22 18:58 49.83140 12.11291 37159 ft 444 kts 115°
2026-04-22 18:58 49.81651 12.15467 36923 ft 442 kts 115°
2026-04-22 18:59 49.80168 12.19623 36741 ft 441 kts 115°
2026-04-22 18:59 49.78689 12.23775 36503 ft 439 kts 115°
2026-04-22 18:59 49.77213 12.27906 36278 ft 438 kts 115°
2026-04-22 18:59 49.75741 12.32020 36087 ft 437 kts 115°
2026-04-22 19:00 49.74761 12.34747 35929 ft 437 kts 115°
2026-04-22 19:00 49.72808 12.40183 35642 ft 436 kts 115°
2026-04-22 19:00 49.71344 12.44276 35430 ft 434 kts 113°
2026-04-22 19:00 49.70502 12.47123 35308 ft 429 kts 107°
2026-04-22 19:01 49.68822 12.57410 35328 ft 425 kts 99°
2026-04-22 19:01 49.67570 12.66338 35328 ft 425 kts 99°
2026-04-22 19:02 49.66514 12.73752 35324 ft 424 kts 99°
2026-04-22 19:02 49.64805 12.82459 35323 ft 429 kts 112°
2026-04-22 19:03 49.61591 12.90279 35324 ft 434 kts 120°
2026-04-22 19:03 49.58168 12.97941 35327 ft 434 kts 120°
2026-04-22 19:04 49.54745 13.05616 35326 ft 434 kts 120°
2026-04-22 19:04 49.51318 13.13277 35322 ft 434 kts 120°
2026-04-22 19:05 49.47880 13.20917 35326 ft 434 kts 120°
2026-04-22 19:05 49.44441 13.28551 35328 ft 434 kts 121°
2026-04-22 19:06 49.40993 13.36174 35335 ft 435 kts 121°
2026-04-22 19:07 49.35795 13.47638 35341 ft 437 kts 121°
2026-04-22 19:07 49.32320 13.55287 35338 ft 437 kts 121°
2026-04-22 19:08 49.28851 13.62886 35330 ft 438 kts 121°
2026-04-22 19:08 49.25308 13.70468 35323 ft 436 kts 122°
2026-04-22 19:08 49.23535 13.74159 35121 ft 427 kts 122°
2026-04-22 19:09 49.21778 13.77797 34687 ft 423 kts 122°
2026-04-22 19:09 49.20040 13.81401 34189 ft 419 kts 122°
2026-04-22 19:09 49.18317 13.84981 33630 ft 416 kts 122°
2026-04-22 19:09 49.16615 13.88528 33091 ft 412 kts 122°
2026-04-22 19:10 49.14924 13.92054 32535 ft 408 kts 122°
2026-04-22 19:10 49.13249 13.95541 31992 ft 405 kts 122°
2026-04-22 19:10 49.11611 13.98949 31518 ft 402 kts 121°
2026-04-22 19:10 49.09935 14.02429 31009 ft 401 kts 121°
2026-04-22 19:11 49.08312 14.05802 30521 ft 398 kts 121°
2026-04-22 19:11 49.06657 14.09238 29952 ft 396 kts 121°
2026-04-22 19:11 49.05018 14.12633 29368 ft 398 kts 121°
2026-04-22 19:11 49.03389 14.16000 28816 ft 401 kts 121°
2026-04-22 19:12 49.01722 14.19439 28253 ft 404 kts 122°
2026-04-22 19:12 49.00041 14.22899 27715 ft 404 kts 122°
2026-04-22 19:12 48.98369 14.26334 27178 ft 403 kts 122°
2026-04-22 19:12 48.96699 14.29760 26668 ft 402 kts 122°
2026-04-22 19:13 48.95037 14.33173 26150 ft 401 kts 122°
2026-04-22 19:13 48.93368 14.36568 25632 ft 401 kts 122°
2026-04-22 19:13 48.91678 14.39944 25136 ft 400 kts 123°
2026-04-22 19:13 48.89984 14.43287 24664 ft 396 kts 123°
2026-04-22 19:14 48.88327 14.46537 24418 ft 383 kts 123°
2026-04-22 19:14 48.86719 14.49679 24212 ft 370 kts 123°
2026-04-22 19:14 48.85161 14.52728 24083 ft 363 kts 122°
2026-04-22 19:14 48.83623 14.55755 23920 ft 361 kts 122°
2026-04-22 19:15 48.82610 14.57754 23826 ft 361 kts 122°
2026-04-22 19:15 48.80566 14.61790 23558 ft 360 kts 122°
2026-04-22 19:15 48.79074 14.64729 23359 ft 349 kts 122°
2026-04-22 19:15 48.77612 14.67595 23162 ft 338 kts 122°
2026-04-22 19:16 48.76185 14.70392 22970 ft 334 kts 122°
2026-04-22 19:16 48.74771 14.73168 22777 ft 332 kts 122°
2026-04-22 19:16 48.73361 14.75942 22583 ft 332 kts 122°
2026-04-22 19:16 48.71953 14.78706 22388 ft 331 kts 122°
2026-04-22 19:17 48.70544 14.81463 22195 ft 331 kts 122°
2026-04-22 19:17 48.69138 14.84210 22008 ft 330 kts 122°
2026-04-22 19:17 48.67732 14.86952 21819 ft 329 kts 122°
2026-04-22 19:17 48.66328 14.89689 21632 ft 329 kts 122°
2026-04-22 19:18 48.64921 14.92426 21448 ft 329 kts 122°
2026-04-22 19:18 48.63515 14.95152 21288 ft 328 kts 122°
2026-04-22 19:18 48.62111 14.97873 21105 ft 328 kts 122°
2026-04-22 19:18 48.60719 15.00599 20923 ft 326 kts 120°
2026-04-22 19:19 48.59525 15.03481 20737 ft 322 kts 112°
2026-04-22 19:19 48.58604 15.06484 20561 ft 317 kts 105°
2026-04-22 19:19 48.57935 15.09681 20377 ft 314 kts 100°
2026-04-22 19:19 48.57365 15.12859 20199 ft 314 kts 100°
2026-04-22 19:20 48.56796 15.15991 20024 ft 313 kts 100°
2026-04-22 19:20 48.56218 15.19159 19850 ft 313 kts 100°
2026-04-22 19:20 48.55658 15.22324 19675 ft 312 kts 99°
2026-04-22 19:20 48.55116 15.25495 19496 ft 311 kts 99°
2026-04-22 19:21 48.54585 15.28664 19238 ft 312 kts 99°
2026-04-22 19:21 48.54056 15.31826 18852 ft 309 kts 99°
2026-04-22 19:21 48.53525 15.34966 18420 ft 308 kts 99°
2026-04-22 19:21 48.52997 15.38086 17991 ft 306 kts 99°
2026-04-22 19:22 48.52467 15.41199 17582 ft 306 kts 99°
2026-04-22 19:22 48.52017 15.44315 17277 ft 302 kts 93°
2026-04-22 19:22 48.51815 15.47452 17066 ft 299 kts 90°
2026-04-22 19:22 48.51646 15.50520 16904 ft 287 kts 90°
2026-04-22 19:23 48.51479 15.53462 16771 ft 276 kts 89°
2026-04-22 19:23 48.51247 15.56281 16594 ft 269 kts 99°
2026-04-22 19:23 48.50670 15.58948 16300 ft 270 kts 102°
2026-04-22 19:23 48.50063 15.61667 16044 ft 276 kts 103°
2026-04-22 19:24 48.49446 15.64415 15792 ft 277 kts 103°
2026-04-22 19:24 48.48828 15.67158 15533 ft 276 kts 103°
2026-04-22 19:24 48.48210 15.69887 15283 ft 272 kts 103°
2026-04-22 19:24 48.47608 15.72528 15038 ft 267 kts 103°
2026-04-22 19:25 48.47001 15.75183 14797 ft 265 kts 103°
2026-04-22 19:25 48.46403 15.77808 14547 ft 265 kts 103°
2026-04-22 19:25 48.45805 15.80443 14304 ft 265 kts 103°
2026-04-22 19:25 48.45210 15.83060 14060 ft 264 kts 103°
2026-04-22 19:26 48.44620 15.85643 13791 ft 264 kts 103°
2026-04-22 19:26 48.44015 15.88286 13514 ft 263 kts 103°
2026-04-22 19:26 48.43427 15.90853 13242 ft 262 kts 103°
2026-04-22 19:26 48.42833 15.93446 12974 ft 262 kts 104°
2026-04-22 19:27 48.42240 15.96034 12708 ft 261 kts 104°
2026-04-22 19:27 48.41649 15.98615 12443 ft 260 kts 104°
2026-04-22 19:27 48.41056 16.01187 12186 ft 260 kts 104°
2026-04-22 19:27 48.40464 16.03753 11921 ft 259 kts 104°
2026-04-22 19:28 48.39872 16.06315 11655 ft 259 kts 104°
2026-04-22 19:28 48.39284 16.08875 11408 ft 258 kts 104°
2026-04-22 19:28 48.38696 16.11430 11158 ft 258 kts 104°
2026-04-22 19:28 48.38108 16.13975 10918 ft 257 kts 104°
2026-04-22 19:29 48.37518 16.16512 10670 ft 257 kts 104°
2026-04-22 19:29 48.36930 16.19047 10422 ft 256 kts 104°
2026-04-22 19:29 48.36350 16.21546 10168 ft 256 kts 104°
2026-04-22 19:29 48.35762 16.24070 9930 ft 254 kts 104°
2026-04-22 19:30 48.35373 16.25735 9840 ft 255 kts 104°
2026-04-22 19:30 48.34588 16.29104 9662 ft 255 kts 104°
2026-04-22 19:30 48.34005 16.31617 9521 ft 255 kts 104°
2026-04-22 19:30 48.33420 16.34126 9386 ft 254 kts 104°
2026-04-22 19:31 48.32833 16.36631 9250 ft 254 kts 105°
2026-04-22 19:31 48.32250 16.39133 9112 ft 253 kts 105°
2026-04-22 19:31 48.31668 16.41629 8989 ft 253 kts 105°
2026-04-22 19:31 48.31083 16.44117 8847 ft 253 kts 105°
2026-04-22 19:32 48.30401 16.46557 8712 ft 255 kts 113°
2026-04-22 19:32 48.29396 16.48769 8578 ft 257 kts 123°
2026-04-22 19:32 48.28324 16.50919 8453 ft 257 kts 123°
2026-04-22 19:32 48.27257 16.53063 8334 ft 256 kts 123°
2026-04-22 19:33 48.26191 16.55203 8204 ft 256 kts 123°
2026-04-22 19:33 48.25124 16.57343 8073 ft 255 kts 123°
2026-04-22 19:33 48.24059 16.59471 7942 ft 255 kts 123°
2026-04-22 19:33 48.23006 16.61570 7818 ft 255 kts 123°
2026-04-22 19:34 48.21939 16.63694 7684 ft 254 kts 123°
2026-04-22 19:34 48.20873 16.65810 7564 ft 254 kts 123°
2026-04-22 19:34 48.19805 16.67924 7435 ft 254 kts 123°
2026-04-22 19:34 48.18740 16.70028 7309 ft 253 kts 123°
2026-04-22 19:35 48.17678 16.72127 7175 ft 252 kts 123°
2026-04-22 19:35 48.16617 16.74225 7057 ft 253 kts 123°
2026-04-22 19:35 48.15915 16.75613 6970 ft 252 kts 123°
2026-04-22 19:35 48.14493 16.78417 6750 ft 252 kts 123°
2026-04-22 19:36 48.13436 16.80500 6494 ft 250 kts 123°
2026-04-22 19:36 48.12386 16.82569 6229 ft 249 kts 123°
2026-04-22 19:36 48.11351 16.84642 5969 ft 247 kts 120°
2026-04-22 19:36 48.10504 16.86856 5705 ft 244 kts 111°
2026-04-22 19:37 48.09741 16.89123 5425 ft 245 kts 116°
2026-04-22 19:37 48.08546 16.90926 5165 ft 248 kts 149°
2026-04-22 19:37 48.06924 16.91580 4832 ft 248 kts 182°
2026-04-22 19:37 48.05258 16.91030 4441 ft 245 kts 202°
2026-04-22 19:38 48.03769 16.89856 4022 ft 240 kts 227°
2026-04-22 19:38 48.02946 16.87861 3853 ft 216 kts 262°
2026-04-22 19:38 48.02775 16.85705 3592 ft 206 kts 274°
2026-04-22 19:38 48.02734 16.83573 3248 ft 204 kts 277°
2026-04-22 19:39 48.03022 16.81596 3009 ft 186 kts 302°
2026-04-22 19:39 48.03581 16.79903 3016 ft 179 kts 302°
2026-04-22 19:39 48.04124 16.78251 3021 ft 176 kts 302°
2026-04-22 19:39 48.04663 16.76614 3008 ft 175 kts 302°
2026-04-22 19:40 48.05199 16.74984 3002 ft 175 kts 302°
2026-04-22 19:40 48.05737 16.73347 2908 ft 175 kts 302°
2026-04-22 19:40 48.06262 16.71746 2739 ft 173 kts 302°
2026-04-22 19:40 48.06791 16.70134 2504 ft 171 kts 302°
2026-04-22 19:41 48.07288 16.68612 2273 ft 158 kts 303°
2026-04-22 19:41 48.07768 16.67150 2060 ft 155 kts 303°
2026-04-22 19:41 48.08239 16.65713 1855 ft 152 kts 303°
2026-04-22 19:41 48.08702 16.64299 1648 ft 149 kts 302°
2026-04-22 19:42 48.09138 16.62961 1446 ft 139 kts 301°
2026-04-22 19:42 48.09555 16.61689 1256 ft 135 kts 299°
2026-04-22 19:42 48.09967 16.60439 1048 ft 133 kts 298°
2026-04-22 19:42 48.10369 16.59196 894 ft 134 kts 297°
2026-04-22 19:43 48.11176 16.56754 638 ft 116 kts 294°
2026-04-22 19:43 48.11451 16.55900 622 ft 66 kts 295°
2026-04-22 19:43 48.11584 16.55486 622 ft 26 kts 303°
2026-04-22 19:44 48.11705 16.55293 612 ft 26 kts 315°
2026-04-22 19:44 48.11817 16.55151 610 ft 0 kts 348°
2026-04-22 19:44 48.11820 16.55151 614 ft 3 kts 348°
2026-04-22 19:45 48.11887 16.55142 608 ft 14 kts 351°
2026-04-22 19:45 48.11939 16.55041 617 ft 13 kts 291°
2026-04-22 19:45 48.11977 16.54916 620 ft 14 kts 296°
2026-04-22 19:45 48.12023 16.54779 615 ft 16 kts 296°
2026-04-22 19:46 48.12074 16.54624 608 ft 17 kts 296°
2026-04-22 19:46 48.12081 16.54604 618 ft 0 kts 296°
2026-04-22 19:46 48.12084 16.54596 617 ft 0 kts 298°
2026-04-22 19:46 48.12099 16.54588 610 ft 6 kts 343°
2026-04-22 19:47 48.12158 16.54586 603 ft 11 kts
2026-04-22 19:47 48.12178 16.54630 603 ft 3 kts 114°
2026-04-22 19:47 48.12169 16.54649 616 ft 6 kts 125°
2026-04-22 19:47 48.12127 16.54734 614 ft 0 kts 126°
2026-04-22 19:48 48.12123 16.54743 610 ft 3 kts 126°
2026-04-22 19:48 48.12101 16.54790 609 ft 8 kts 122°
2026-04-22 19:48 48.12070 16.54876 612 ft 10 kts 118°
2026-04-22 19:49 48.12035 16.54976 610 ft 11 kts 115°
2026-04-22 19:49 48.11999 16.55092 620 ft 14 kts 116°
2026-04-22 19:49 48.11994 16.55172 615 ft 6 kts 38°
2026-04-22 19:49 48.12047 16.55202 603 ft 10 kts 28°
2026-04-22 19:50 48.12098 16.55243 600 ft 7 kts 28°
2026-04-22 19:50 48.12154 16.55281 597 ft 9 kts
2026-04-22 19:50 48.12170 16.55237 597 ft 4 kts 280°
2026-04-22 19:50 48.12172 16.55228 597 ft 0 kts 285°